Regional Weather Roundup
Issued by NWS

Home | Current Version | Previous Version | Graphics & Text | Print | Product List | Glossary On
Versions: 1 2 3 4 5 6 7 8 9 10 11 12 13 14 15 16 17 18 19 20 21 22 23 24 25 26 27 28 29 30 31 32 33 34 35 36 37 38 39 40 41 42 43 44 45 46 47 48 49 50
000
ASUS43 KIND 230259
RWRIN

WEATHER ROUNDUP FOR INDIANA
NATIONAL WEATHER SERVICE INDIANAPOLIS IN
1000 PM EST THU FEB 22 2018

NOTE: "FAIR" INDICATES FEW OR NO CLOUDS BELOW 12,000 FEET WITH NO
SIGNIFICANT WEATHER AND/OR OBSTRUCTIONS TO VISIBILITY.

* - STATION DOES NOT REPORT WEATHER SUCH AS PRECIPITATION OR FOG.

+ - STATION NOT QUALITY CONTROLLED BY THE NATIONAL WEATHER SERVICE.
    USE DATA WITH CAUTION...ESPECIALLY DEWPOINT AND RELATIVE
    HUMIDITY OBSERVATIONS.

INZ001>003-010>013-019-020-230400-
NORTHWEST INDIANA

CITY           SKY/WX    TMP DP  RH WIND       PRES   REMARKS
GARY /AIRPORT/ CLOUDY    41  36  81 E21       30.32F
MONTICELLO +   LGT RAIN  39  38  95 E9        30.36F WCI  33

$$

LMZ046-743>745-230400-
SOUTHERN LAKE MICHIGAN

STATION/POSITION TIME  TEMP    WIND        PRES    WAVE
                       AIR SEA DIR/SP/G            HT
                 (UTC) (F)     (DEG/KT/KT) (MB)    (FT)
BURNS HARBOR     0240   39     110/ 12/ 18 1027.8F
MICHIGAN CITY    0230   39      90/ 11/ 16   N/A

$$

INZ004-005-014>016-021>024-230400-
NORTH CENTRAL INDIANA

CITY           SKY/WX    TMP DP  RH WIND       PRES   REMARKS
GOSHEN         CLOUDY    37  33  85 E15       30.41F WCI  28
SOUTH BEND     CLOUDY    38  33  82 SE17      30.40F WCI  28
WARSAW +       CLOUDY    36  32  87 MISG      30.42S

$$

INZ006>009-017-018-025>027-230400-
NORTHEAST INDIANA

CITY           SKY/WX    TMP DP  RH WIND       PRES   REMARKS
AUBURN +       CLOUDY    34  32  93 E14       30.45R WCI  24
FORT WAYNE     CLOUDY    36  33  89 E16       30.44R WCI  26
KENDALLVILLE + CLOUDY    34  33  93 E10G17    30.43S WCI  26

$$

INZ028-029-035-036-043>045-051>053-230400-
WEST CENTRAL INDIANA

CITY           SKY/WX    TMP DP  RH WIND       PRES   REMARKS
GREENCASTLE +  CLOUDY    43  41  93 E6        30.35S FOG
LAFAYETTE      CLOUDY    41  41 100 E13       30.33F FOG
TERRE HAUTE    CLOUDY    44  43  96 SE9       30.34S

$$

INZ030>032-037>040-046>048-054>057-064-065-230400-
CENTRAL INDIANA

CITY           SKY/WX    TMP DP  RH WIND       PRES   REMARKS
COLUMBUS       LGT RAIN  43 N/A N/A SE5       30.37F FOG
GREENWOOD *+   CLOUDY    42 -47   2 E6        30.37S
INDIANAPOLIS   DRIZZLE   44  43  96 E9        30.35F FOG
-EAGLE CREEK   CLOUDY    45  42  89 E7        30.35F FOG
KOKOMO +       LGT RAIN  38  37  97 E13       30.39F FOG     WCI  30
MT COMFORT *+  CLOUDY    43  43 100 E5        30.38R
SHELBYVILLE    CLOUDY    44  42  93 E6        30.36S FOG

$$

INZ033-034-041-042-049-050-058-059-230400-
EAST CENTRAL INDIANA

CITY           SKY/WX    TMP DP  RH WIND       PRES   REMARKS
MUNCIE         CLOUDY    42  40  92 E7        30.39R FOG
RICHMOND +     CLOUDY    41  41 100 SE13      30.37F FOG

$$

INZ060-061-067>069-081>083-085>088-230400-
SOUTHWEST INDIANA

CITY           SKY/WX    TMP DP  RH WIND       PRES   REMARKS
EVANSVILLE     FOG       49  49 100 E5        30.32F VSB 3/4
HUNTINGBURG +  CLOUDY    48  47  96 E6        30.33F FOG

$$

INZ062-063-066-070>080-084-089>092-230400-
SOUTH CENTRAL AND SOUTHEAST INDIANA

CITY           SKY/WX    TMP DP  RH WIND       PRES   REMARKS
BLOOMINGTON    FOG       44  44 100 E6        30.34S VSB 1
FRENCH LICK *+ CLOUDY    45 N/A N/A E6        30.33F VSB 1/2
SEYMOUR +      CLOUDY    46  46 100 E3        30.36S FOG

$$




USA.gov is the U.S. government's official web portal to all federal, state and local government web resources and services.